Location: Antioch Baptist Church
(32.6696°N, 85.7327°W)
Time: 12:02:41
(UTC+00:00)

NOSS 3-4 (C) - Pass Details

Date: 14 July 2020
Orbit: 891 x 1321 km, 63.4° (Epoch: 12 July)

Event Time Altitude Azimuth Distance (km) Brightness Sun altitude
Rises 03:03:51 0° 333° (NNW) 3,904 8.0 -22.9°
Reaches altitude 10° 03:06:26 10° 336° (NNW) 3,004 7.0 -23.3°
Maximum altitude 03:13:40 67° 58° (ENE) 1,298 4.0 -24.3°
Enters shadow 03:16:11 45° 123° (ESE) 1,637 4.2 -24.6°
